Weather History for Flora, IL

Change the Weather History Date:

Wednesday, August 21, 2013

  Actual Average (KEVV) Record (KEVV)
Temperature  
Mean Temperature 75 °F 77 °F  
Max Temperature 88 °F 88 °F 101 °F (1983)
Min Temperature 62 °F 65 °F 49 °F (1950)
Degree Days  
Heating Degree Days 0 0  
Month to date heating degree days 0  
Since 1 June heating degree days 6  
Since 1 July heating degree days 0  
Cooling Degree Days 10 12  
Month to date cooling degree days 255  
Year to date cooling degree days 1091  
Since 1 June cooling degree days 956  
Growing Degree Days 25 (Base 50)    
Moisture  
Dew Point 66 °F    
Average Humidity 78    
Maximum Humidity 100    
Minimum Humidity 43    
Precipitation  
Precipitation 0.00 in 0.10 in 1.34 in (1989)
Month to date precipitation 2.04  
Year to date precipitation 29.98  
Snow  
Snow 0.00 in 0.00 in 0.00 in (2002)
Month to date snowfall 0.0  
Since 1 June snowfall 0.0  
Since 1 July snowfall 0.0  
Snow Depth -    
Sea Level Pressure  
Sea Level Pressure 30.11 in    
Wind  
Wind Speed 2 mph (SW)    
Max Wind Speed 10 mph    
Max Gust Speed -    
Visibility 8 miles    
Events Fog    
T = Trace of Precipitation, MM = Missing Value Source: NWS Daily Summary

Daily Weather History Graph

Daily Weather History Graph

Search for Another Location

Airport:

Trip Planner

Search our weather history database for the weather conditions in past years. The results will help you decide how hot, cold, wet, or windy it might be!

Date:

Astronomy

Aug. 21, 2013 Rise Set
Actual Time 6:13 AM CDT 7:39 PM CDT
Civil Twilight 5:45 AM CDT 8:07 PM CDT
Nautical Twilight 5:11 AM CDT 8:40 PM CDT
Astronomical Twilight 4:36 AM CDT 9:15 PM CDT
Moon 7:49 PM CDT (8/21) 6:52 AM CDT (8/21)
Length of Visible Light 14h 21m
Length of Day
13h 26m
Waxing Gibbous, 99% of the Moon is Illuminated
Aug 21
Waxing Gibbous
Aug 28
Last Quarter
Sep 5
New
Sep 12
First Quarter
Sep 19
Full

Hourly Weather History & Observations

Time (CDT) Temp. Heat Index Dew Point Humidity Pressure Visibility Wind Dir Wind Speed Gust Speed Precip Events Conditions
12:15 AM 67.1 °F - 66.4 °F 98% 30.10 in 5.0 mi Calm Calm - N/A   Clear
12:35 AM 67.5 °F - 67.1 °F 99% 30.10 in 7.0 mi Calm Calm - N/A   Clear
12:55 AM 67.1 °F - 66.2 °F 97% 30.10 in 7.0 mi Calm Calm - N/A   Clear
1:15 AM 67.1 °F - 66.0 °F 96% 30.10 in 7.0 mi Calm Calm - N/A   Clear
1:35 AM 66.4 °F - 65.7 °F 98% 30.10 in 5.0 mi Calm Calm - N/A   Clear
1:55 AM 65.5 °F - 64.9 °F 98% 30.09 in 7.0 mi Calm Calm - N/A   Clear
2:15 AM 66.0 °F - 65.3 °F 98% 30.09 in 5.0 mi Calm Calm - N/A   Clear
2:35 AM 65.3 °F - 64.4 °F 97% 30.09 in 7.0 mi Calm Calm - N/A   Clear
2:55 AM 65.8 °F - 65.7 °F 99% 30.10 in 3.0 mi SE 4.6 mph - N/A   Clear
3:15 AM 65.5 °F - 65.3 °F 99% 30.10 in 3.0 mi Calm Calm - N/A   Clear
3:35 AM 65.5 °F - 65.3 °F 99% 30.10 in 4.0 mi Calm Calm - N/A   Clear
3:55 AM 65.3 °F - 64.9 °F 99% 30.09 in 3.0 mi Calm Calm - N/A   Clear
4:15 AM 64.0 °F - 63.9 °F 99% 30.09 in 2.5 mi Calm Calm - N/A   Clear
4:35 AM 64.6 °F - 64.4 °F 99% 30.09 in 3.0 mi Calm Calm - N/A   Clear
4:55 AM 63.9 °F - 63.7 °F 99% 30.10 in 4.0 mi Calm Calm - N/A   Clear
5:15 AM 63.5 °F - 63.3 °F 99% 30.10 in 4.0 mi Calm Calm - N/A   Clear
5:35 AM 63.5 °F - 63.1 °F 99% 30.11 in 2.5 mi Calm Calm - N/A   Clear
5:55 AM 62.8 °F - 62.8 °F 100% 30.12 in 0.8 mi Calm Calm - N/A   Mist
6:15 AM 63.0 °F - 63.0 °F 100% 30.12 in 0.2 mi Calm Calm - N/A Fog Fog
6:35 AM 63.1 °F - 63.1 °F 100% 30.13 in 1.2 mi Calm Calm - N/A   Scattered Clouds
6:55 AM 63.7 °F - 63.7 °F 100% 30.13 in 1.2 mi Calm Calm - N/A   Mist
7:15 AM 66.6 °F - 66.6 °F 100% 30.13 in 1.8 mi Calm Calm - N/A   Mist
7:35 AM 68.7 °F - 68.7 °F 100% 30.14 in 4.0 mi Calm Calm - N/A   Clear
7:55 AM 70.3 °F - 70.0 °F 99% 30.14 in 7.0 mi Calm Calm - N/A   Clear
8:15 AM 72.1 °F - 70.7 °F 95% 30.15 in 10.0 mi SSE 3.5 mph - N/A   Clear
8:35 AM 73.0 °F - 70.9 °F 93% 30.15 in 10.0 mi Calm Calm - N/A   Clear
8:55 AM 75.4 °F - 71.6 °F 88% 30.15 in 10.0 mi Calm Calm - N/A   Clear
9:15 AM 76.8 °F - 71.4 °F 83% 30.15 in 10.0 mi Calm Calm - N/A   Clear
9:35 AM 78.1 °F - 71.6 °F 80% 30.16 in 10.0 mi Calm Calm - N/A   Clear
9:55 AM 80.1 °F 82.8 °F 68.7 °F 68% 30.16 in 10.0 mi SW 5.8 mph - N/A   Clear
10:15 AM 80.8 °F 83.8 °F 68.9 °F 67% 30.16 in 10.0 mi SW 3.5 mph - N/A   Clear
10:35 AM 81.7 °F 84.5 °F 68.0 °F 63% 30.16 in 10.0 mi SSW 3.5 mph - N/A   Clear
10:55 AM 82.0 °F 84.5 °F 66.9 °F 60% 30.16 in 10.0 mi SSW 5.8 mph - N/A   Clear
11:15 AM 82.9 °F 85.6 °F 67.3 °F 59% 30.15 in 10.0 mi SSW 8.1 mph - N/A   Clear
11:35 AM 83.5 °F 85.7 °F 66.2 °F 56% 30.14 in 10.0 mi South 5.8 mph - N/A   Clear
11:55 AM 83.8 °F 86.0 °F 66.0 °F 55% 30.14 in 10.0 mi Calm Calm - N/A   Clear
12:15 PM 84.6 °F 86.6 °F 65.7 °F 53% 30.14 in 10.0 mi SW 5.8 mph - N/A   Clear
12:35 PM 85.6 °F 86.8 °F 63.7 °F 48% 30.13 in 10.0 mi SSW 6.9 mph - N/A   Clear
12:55 PM 85.8 °F 87.6 °F 64.9 °F 50% 30.13 in 10.0 mi SW 6.9 mph - N/A   Clear
1:15 PM 86.2 °F 87.9 °F 64.9 °F 49% 30.13 in 10.0 mi WSW 6.9 mph - N/A   Clear
1:35 PM 86.2 °F 88.2 °F 65.5 °F 50% 30.12 in 10.0 mi SSW 4.6 mph - N/A   Clear
1:55 PM 86.9 °F 88.3 °F 64.2 °F 47% 30.11 in 10.0 mi South 5.8 mph - N/A   Clear
2:15 PM 86.7 °F 88.4 °F 64.8 °F 48% 30.11 in 10.0 mi SW 5.8 mph - N/A   Clear
2:35 PM 86.7 °F 87.8 °F 63.9 °F 46% 30.10 in 10.0 mi SW 10.4 mph - N/A   Clear
2:55 PM 87.6 °F 88.2 °F 62.6 °F 43% 30.10 in 10.0 mi SW 6.9 mph - N/A   Clear
3:15 PM 88.0 °F 89.0 °F 63.7 °F 44% 30.10 in 10.0 mi WSW 6.9 mph - N/A   Clear
3:35 PM 86.9 °F 88.1 °F 64.0 °F 46% 30.09 in 10.0 mi SW 6.9 mph - N/A   Clear
3:55 PM 87.1 °F 87.8 °F 63.0 °F 44% 30.09 in 10.0 mi SSW 6.9 mph - N/A   Clear
4:15 PM 87.3 °F 88.3 °F 63.5 °F 45% 30.09 in 10.0 mi SW 6.9 mph - N/A   Clear
4:35 PM 87.3 °F 88.6 °F 63.9 °F 46% 30.08 in 10.0 mi South 6.9 mph - N/A   Clear
4:55 PM 87.1 °F 88.3 °F 64.0 °F 46% 30.08 in 10.0 mi WSW 4.6 mph - N/A   Clear
5:15 PM 86.7 °F 87.5 °F 63.3 °F 45% 30.07 in 10.0 mi SW 6.9 mph - N/A   Clear
5:35 PM 86.2 °F 87.3 °F 63.7 °F 47% 30.07 in 10.0 mi WSW 5.8 mph - N/A   Clear
5:55 PM 85.5 °F 86.8 °F 64.2 °F 49% 30.07 in 10.0 mi WSW 5.8 mph - N/A   Clear
6:15 PM 84.6 °F 86.3 °F 65.1 °F 52% 30.07 in 10.0 mi SW 3.5 mph - N/A   Clear
6:35 PM 83.7 °F 86.0 °F 66.2 °F 56% 30.06 in 10.0 mi SW 3.5 mph - N/A   Clear
6:55 PM 82.2 °F 85.5 °F 68.7 °F 64% 30.06 in 10.0 mi SSW 3.5 mph - N/A   Clear
7:15 PM 79.5 °F - 68.9 °F 70% 30.06 in 10.0 mi SSW 3.5 mph - N/A   Clear
7:35 PM 76.8 °F - 69.3 °F 77% 30.07 in 10.0 mi Calm Calm - N/A   Clear
7:55 PM 75.6 °F - 69.6 °F 82% 30.06 in 10.0 mi Calm Calm - N/A   Clear
8:15 PM 73.9 °F - 68.9 °F 84% 30.07 in 10.0 mi Calm Calm - N/A   Clear
8:35 PM 72.5 °F - 68.2 °F 86% 30.07 in 10.0 mi Calm Calm - N/A   Clear
8:55 PM 72.1 °F - 68.2 °F 87% 30.07 in 10.0 mi Calm Calm - N/A   Clear
9:15 PM 70.7 °F - 68.0 °F 91% 30.09 in 10.0 mi Calm Calm - N/A   Clear
9:35 PM 70.0 °F - 68.0 °F 93% 30.10 in 10.0 mi Calm Calm - N/A   Clear
9:55 PM 69.3 °F - 68.0 °F 96% 30.10 in 10.0 mi Calm Calm - N/A   Clear
10:15 PM 69.1 °F - 67.5 °F 95% 30.11 in 10.0 mi Calm Calm - N/A   Clear
10:35 PM 68.9 °F - 67.1 °F 94% 30.11 in 10.0 mi Calm Calm - N/A   Clear
10:55 PM 68.0 °F - 66.6 °F 95% 30.10 in 10.0 mi Calm Calm - N/A   Clear
11:15 PM 67.8 °F - 66.2 °F 95% 30.11 in 10.0 mi Calm Calm - N/A   Clear
11:35 PM 67.3 °F - 66.0 °F 96% 30.11 in 10.0 mi Calm Calm - N/A   Clear
11:55 PM 67.3 °F - 66.0 °F 96% 30.11 in 10.0 mi Calm Calm - N/A   Clear